Weather History for Bethel, AK

Change the Weather History Date:

Thursday, January 31, 2013

  Actual Average Record
Temperature  
Mean Temperature 17 °F -  
Max Temperature 25 °F 14 °F 45 °F (1994)
Min Temperature 8 °F - -37 °F (1971)
Degree Days  
Heating Degree Days 48 57  
Month to date heating degree days 1560 1812  
Since 1 July heating degree days 7509 7236  
Cooling Degree Days 0    
Month to date cooling degree days 0  
Year to date cooling degree days 0  
Moisture  
Dew Point 14 °F    
Average Humidity 94    
Maximum Humidity 100    
Minimum Humidity 86    
Precipitation  
Precipitation T in 0.02 in 0.62 in (1985)
Month to date precipitation 1.35 0.78  
Year to date precipitation 1.35 0.78  
Snow  
Snow T in 0.30 in 1.60 in (2011)
Month to date snowfall 13.3 9.6  
Since 1 July snowfall 26.0 38.9  
Snow Depth 5.00 in    
Sea Level Pressure  
Sea Level Pressure 29.90 in    
Wind  
Wind Speed 8 mph (SSE)    
Max Wind Speed 20 mph    
Max Gust Speed 23 mph    
Visibility 3 miles    
Events Fog    
T = Trace of Precipitation, MM = Missing Value Source: NWS Daily Summary

Daily Weather History Graph

Daily Weather History Graph

Search for Another Location

Airport:

Trip Planner

Search our weather history database for the weather conditions in past years. The results will help you decide how hot, cold, wet, or windy it might be!

Date:

Astronomy

Jan. 31, 2013 Rise Set
Actual Time 10:06 AM AKST 5:56 PM AKST
Civil Twilight 9:17 AM AKST 6:45 PM AKST
Nautical Twilight 8:25 AM AKST 7:37 PM AKST
Astronomical Twilight 7:35 AM AKST 8:27 PM AKST
Moon No Moon Rise 10:37 AM AKST (1/31)
Length of Visible Light 9h 27m
Length of Day
7h 49m
Waning Gibbous, 78% of the Moon is Illuminated
Jan 31
Waning Gibbous
Feb 3
Last Quarter
Feb 9
New
Feb 17
First Quarter
Feb 25
Full

Hourly Weather History & Observations

Time (AKST) Temp. Windchill Dew Point Humidity Pressure Visibility Wind Dir Wind Speed Gust Speed Precip Events Conditions
12:53 AM 24.1 °F 15.2 °F 23.0 °F 96% 29.72 in 10.0 mi SSW 8.1 mph - N/A   Overcast
1:53 AM 24.1 °F 15.2 °F 23.0 °F 96% 29.74 in 10.0 mi South 8.1 mph - N/A   Overcast
2:53 AM 24.1 °F 17.0 °F 21.9 °F 91% 29.77 in 10.0 mi South 5.8 mph - N/A   Overcast
3:53 AM 21.9 °F 11.7 °F 21.0 °F 96% 29.79 in 10.0 mi South 9.2 mph - 0.00 in   Overcast
4:53 AM 23.0 °F 13.9 °F 21.0 °F 92% 29.81 in 10.0 mi SSW 8.1 mph - N/A   Overcast
5:53 AM 21.9 °F 14.5 °F 21.0 °F 96% 29.82 in 10.0 mi SW 5.8 mph - N/A   Overcast
6:53 AM 21.9 °F 13.4 °F 21.0 °F 96% 29.84 in 10.0 mi South 6.9 mph - N/A   Overcast
7:53 AM 17.1 °F 6.6 °F 16.0 °F 96% 29.85 in 8.0 mi South 8.1 mph - N/A   Mostly Cloudy
8:04 AM 17.6 °F - 17.6 °F 100% 29.84 in 3.0 mi North - - N/A Fog Patches of Fog
8:09 AM 15.8 °F 5.1 °F 15.8 °F 100% 29.84 in 1.0 mi South 8.1 mph - N/A Fog Patches of Fog
8:13 AM 17.6 °F 6.4 °F 15.8 °F 93% 29.84 in 1.0 mi South 9.2 mph - N/A Fog Patches of Fog
8:25 AM 17.6 °F - 15.8 °F 93% 29.84 in 0.8 mi North - - N/A   Mist
8:53 AM 14.0 °F 6.5 °F 12.9 °F 95% 29.86 in 0.8 mi SSE 4.6 mph - N/A   Mist
9:10 AM 12.2 °F 2.9 °F 12.2 °F 100% 29.86 in 0.5 mi South 5.8 mph - N/A Fog Light Freezing Fog
9:42 AM 10.4 °F 2.2 °F 10.4 °F 100% 29.88 in 0.5 mi South 4.6 mph - N/A Fog Light Freezing Fog
9:53 AM 10.9 °F 2.9 °F 9.0 °F 92% 29.89 in 0.5 mi SSE 4.6 mph - N/A Fog Light Freezing Fog
10:53 AM 12.0 °F 2.7 °F 10.9 °F 95% 29.91 in 0.8 mi South 5.8 mph - N/A   Mostly Cloudy
11:25 AM 12.2 °F 2.9 °F 10.4 °F 92% 29.90 in 1.0 mi South 5.8 mph - N/A   Mostly Cloudy
11:53 AM 12.0 °F 4.1 °F 10.9 °F 95% 29.92 in 2.5 mi South 4.6 mph - N/A   Mostly Cloudy
12:53 PM 14.0 °F 5.1 °F 12.9 °F 95% 29.94 in 2.5 mi South 5.8 mph - N/A   Scattered Clouds
1:00 PM 15.8 °F 8.6 °F 14.0 °F 93% 29.93 in 3.0 mi South 4.6 mph - N/A   Scattered Clouds
1:17 PM 15.8 °F 8.6 °F 15.8 °F 100% 29.94 in 2.0 mi South 4.6 mph - N/A   Scattered Clouds
1:21 PM 15.8 °F 8.6 °F 14.0 °F 93% 29.94 in 1.8 mi South 4.6 mph - N/A   Scattered Clouds
1:43 PM 15.8 °F 8.6 °F 14.0 °F 93% 29.95 in 0.8 mi South 4.6 mph - N/A   Mostly Cloudy
1:53 PM 15.1 °F 7.7 °F 12.9 °F 91% 29.96 in 0.8 mi SSE 4.6 mph - N/A   Mostly Cloudy
2:00 PM 15.8 °F 8.6 °F 14.0 °F 93% 29.95 in 1.5 mi SSE 4.6 mph - N/A   Mostly Cloudy
2:12 PM 15.8 °F 8.6 °F 14.0 °F 93% 29.95 in 1.0 mi SSE 4.6 mph - N/A   Mostly Cloudy
2:53 PM 16.0 °F 8.8 °F 15.1 °F 96% 29.96 in 1.0 mi SE 4.6 mph - N/A   Mostly Cloudy
3:42 PM 19.4 °F - 15.8 °F 86% 29.94 in 0.5 mi Calm Calm - N/A Fog Light Freezing Fog
3:53 PM 17.1 °F 11.7 °F 15.1 °F 92% 29.95 in 1.0 mi NNE 3.5 mph - N/A   Mostly Cloudy
3:56 PM 17.6 °F 12.3 °F 15.8 °F 93% 29.94 in 1.0 mi NNE 3.5 mph - N/A   Mist
4:17 PM 14.0 °F 8.2 °F 12.2 °F 93% 29.95 in 0.5 mi North 3.5 mph - N/A   Mist
4:53 PM 10.9 °F 1.4 °F 10.0 °F 96% 29.96 in 0.5 mi North 5.8 mph - N/A   Mist
4:56 PM 12.2 °F 2.9 °F 10.4 °F 92% 29.95 in 0.2 mi North 5.8 mph - N/A   Mist
5:53 PM 10.9 °F 0.2 °F 9.0 °F 92% 29.94 in 0.2 mi North 6.9 mph - N/A   Mist
6:23 PM 12.2 °F 4.3 °F 12.2 °F 100% 29.95 in 0.2 mi North 4.6 mph - N/A   Mist
6:53 PM 12.0 °F 2.7 °F 10.0 °F 92% 29.97 in 0.5 mi North 5.8 mph - N/A   Mist
7:53 PM 9.0 °F -0.9 °F 7.0 °F 92% 29.97 in 0.5 mi North 5.8 mph - N/A   Mist
8:53 PM 8.1 °F -6.2 °F 7.0 °F 95% 29.97 in 1.0 mi North 10.4 mph - N/A   Mist
9:18 PM 8.6 °F -4.7 °F 6.8 °F 92% 29.95 in 7.0 mi North 9.2 mph - N/A   Overcast
9:53 PM 10.0 °F -4.5 °F 8.1 °F 92% 29.95 in 10.0 mi North 11.5 mph - N/A   Partly Cloudy
10:53 PM 10.9 °F -5.9 °F 9.0 °F 92% 29.94 in 10.0 mi NNE 16.1 mph - N/A   Partly Cloudy
11:53 PM 12.9 °F -4.9 °F 10.0 °F 88% 29.94 in 10.0 mi NNE 19.6 mph - N/A   Partly Cloudy